When you browse on this site, cookies collect data to enhance your experience and personalize the content and advertising you see.
Visit our Privacy Policy to learn more. By continuing to use the site, you agree to this use of cookies and data.
  • In Czech Republic
  • List of Countries
  • For 7 days
  • Water Temperature
  • Weather Map
  • Weather Widgets
  • user-avatar
    Login

    Hourly Weather Puerto Wilches

    Today, 13 November, Wednesday

    Time Temperature Precipitation Wind Pressure Humidity
    00:00 +24°C° 1.7 mm 0 mps 752 mmHg 97%
    01:00 +23°C° 1.7 mm 0 mps 752 mmHg 98%
    02:00 +23°C° 1.6 mm 0 mps 752 mmHg 98%
    03:00 +23°C° 1.6 mm 0 mps 752 mmHg 98%
    04:00 +23°C° 1.6 mm 0 mps 752 mmHg 99%
    05:00 +23°C° 0.6 mm 0 mps 752 mmHg 98%
    06:00 +23°C° 0.6 mm 0 mps 753 mmHg 98%
    07:00 +24°C° 0.6 mm 0 mps 753 mmHg 98%
    08:00 +27°C° 0.4 mm 1 mps 753 mmHg 95%
    09:00 +28°C° 0.4 mm 1 mps 753 mmHg 91%
    10:00 +29°C° 0.4 mm 1 mps 753 mmHg 88%
    11:00 +30°C° 0.9 mm 1 mps 753 mmHg 84%
    12:00 +31°C° 0.9 mm 1 mps 752 mmHg 80%
    13:00 +32°C° 0.9 mm 1 mps 751 mmHg 76%
    14:00 +31°C° 1.2 mm 1 mps 751 mmHg 79%
    15:00 +29°C° 1.2 mm 0 mps 750 mmHg 82%
    16:00 +28°C° 1.2 mm 0 mps 750 mmHg 85%
    17:00 +27°C° 2.9 mm 0 mps 751 mmHg 89%
    18:00 +28°C° 2.9 mm 1 mps 752 mmHg 93%
    19:00 +26°C° 2.9 mm 1 mps 752 mmHg 98%
    20:00 +26°C° 8.1 mm 1 mps 753 mmHg 98%
    21:00 +25°C° 8.1 mm 1 mps 754 mmHg 99%
    22:00 +25°C° 8.1 mm 1 mps 754 mmHg 99%
    23:00 +23°C° 5.7 mm 0 mps 754 mmHg 99%

    Tomorrow, 14 November, Thursday

    Time Temperature Precipitation Wind Pressure Humidity
    00:00 +23°C° 5.7 mm 0 mps 754 mmHg 99%
    01:00 +23°C° 5.7 mm 0 mps 753 mmHg 99%
    02:00 +23°C° 4.6 mm 0 mps 754 mmHg 99%
    03:00 +23°C° 4.6 mm 0 mps 754 mmHg 99%
    04:00 +23°C° 4.6 mm 0 mps 754 mmHg 99%
    05:00 +23°C° 2.7 mm 0 mps 754 mmHg 99%
    06:00 +23°C° 2.7 mm 0 mps 755 mmHg 99%
    07:00 +23°C° 2.7 mm 0 mps 755 mmHg 99%
    08:00 +23°C° 0.6 mm 0 mps 756 mmHg 99%
    09:00 +23°C° 0.6 mm 0 mps 756 mmHg 98%
    10:00 +23°C° 0.6 mm 0 mps 757 mmHg 98%
    11:00 +24°C° 0.2 mm 0 mps 756 mmHg 95%
    12:00 +25°C° 0.2 mm 0 mps 755 mmHg 92%
    13:00 +25°C° 0.2 mm 0 mps 754 mmHg 89%
    14:00 +26°C° 0 mm 0 mps 753 mmHg 87%
    15:00 +26°C° 0 mm 0 mps 753 mmHg 85%
    16:00 +26°C° 0 mm 0 mps 752 mmHg 83%
    17:00 +25°C° 0 mm 0 mps 753 mmHg 87%
    18:00 +24°C° 0 mm 0 mps 753 mmHg 91%
    19:00 +23°C° 0 mm 0 mps 754 mmHg 95%
    20:00 +23°C° 0 mm 0 mps 755 mmHg 95%
    21:00 +23°C° 0 mm 0 mps 755 mmHg 96%
    22:00 +23°C° 0 mm 0 mps 756 mmHg 97%
    23:00 +22°C° 0 mm 0 mps 755 mmHg 97%

    Day after tomorrow, 15 November, Friday

    Time Temperature Precipitation Wind Pressure Humidity
    00:00 +22°C° 0 mm 0 mps 755 mmHg 97%
    01:00 +22°C° 0 mm 0 mps 755 mmHg 97%
    02:00 +22°C° 0 mm 0 mps 755 mmHg 98%
    03:00 +22°C° 0 mm 0 mps 754 mmHg 98%
    04:00 +22°C° 0 mm 0 mps 754 mmHg 98%
    05:00 +22°C° 0 mm 0 mps 755 mmHg 97%
    06:00 +23°C° 0 mm 0 mps 755 mmHg 96%
    07:00 +23°C° 0 mm 0 mps 756 mmHg 95%
    08:00 +25°C° 0.1 mm 0 mps 756 mmHg 86%
    09:00 +27°C° 0.1 mm 0 mps 755 mmHg 77%
    10:00 +29°C° 0.1 mm 0 mps 755 mmHg 69%
    11:00 +32°C° 0.2 mm 1 mps 754 mmHg 65%
    12:00 +33°C° 0.2 mm 1 mps 753 mmHg 61%
    13:00 +34°C° 0.2 mm 1 mps 752 mmHg 58%
    14:00 +33°C° 0.4 mm 1 mps 752 mmHg 63%
    15:00 +32°C° 0.4 mm 1 mps 752 mmHg 68%
    16:00 +31°C° 0.4 mm 1 mps 751 mmHg 73%
    17:00 +30°C° 0.8 mm 1 mps 752 mmHg 80%
    18:00 +28°C° 0.8 mm 1 mps 752 mmHg 87%
    19:00 +26°C° 0.8 mm 1 mps 753 mmHg 94%
    20:00 +26°C° 1.2 mm 1 mps 753 mmHg 95%
    21:00 +23°C° 1.2 mm 0 mps 754 mmHg 96%
    22:00 +23°C° 1.2 mm 0 mps 754 mmHg 97%
    23:00 +23°C° 0.7 mm 0 mps 754 mmHg 97%

    16 November, Saturday

    Time Temperature Precipitation Wind Pressure Humidity
    00:00 +22°C° 0.7 mm 0 mps 754 mmHg 98%
    01:00 +22°C° 0.7 mm 0 mps 753 mmHg 98%
    02:00 +22°C° 0.4 mm 0 mps 753 mmHg 98%
    03:00 +22°C° 0.4 mm 0 mps 753 mmHg 98%
    04:00 +22°C° 0.4 mm 0 mps 753 mmHg 98%
    05:00 +22°C° 0.2 mm 0 mps 753 mmHg 98%
    06:00 +23°C° 0.2 mm 0 mps 754 mmHg 97%
    07:00 +23°C° 0.2 mm 0 mps 754 mmHg 97%
    08:00 +25°C° 0.2 mm 0 mps 754 mmHg 91%
    09:00 +26°C° 0.2 mm 0 mps 754 mmHg 85%
    10:00 +30°C° 0.2 mm 1 mps 754 mmHg 79%
    11:00 +31°C° 0.5 mm 1 mps 753 mmHg 75%
    12:00 +32°C° 0.5 mm 1 mps 751 mmHg 70%
    13:00 +33°C° 0.5 mm 1 mps 750 mmHg 65%
    14:00 +32°C° 0.5 mm 1 mps 750 mmHg 68%
    15:00 +32°C° 0.5 mm 1 mps 750 mmHg 71%
    16:00 +31°C° 0.5 mm 1 mps 750 mmHg 74%
    17:00 +30°C° 1.7 mm 1 mps 750 mmHg 81%
    18:00 +28°C° 1.7 mm 1 mps 751 mmHg 88%
    19:00 +26°C° 1.7 mm 1 mps 751 mmHg 96%
    20:00 +26°C° 2.5 mm 1 mps 752 mmHg 96%
    21:00 +25°C° 2.5 mm 1 mps 752 mmHg 97%
    22:00 +25°C° 2.5 mm 1 mps 753 mmHg 97%
    23:00 +25°C° 1.4 mm 1 mps 753 mmHg 98%

    17 November, Sunday

    Time Temperature Precipitation Wind Pressure Humidity
    00:00 +25°C° 1.4 mm 1 mps 752 mmHg 98%
    01:00 +23°C° 1.4 mm 0 mps 752 mmHg 98%
    02:00 +23°C° 1 mm 0 mps 752 mmHg 98%
    03:00 +22°C° 1 mm 0 mps 752 mmHg 98%
    04:00 +22°C° 1 mm 0 mps 752 mmHg 99%
    05:00 +23°C° 0.2 mm 0 mps 752 mmHg 98%
    06:00 +23°C° 0.2 mm 0 mps 753 mmHg 98%
    07:00 +23°C° 0.2 mm 0 mps 753 mmHg 98%
    08:00 +24°C° 0.1 mm 0 mps 753 mmHg 92%
    09:00 +26°C° 0.1 mm 0 mps 753 mmHg 86%
    10:00 +27°C° 0.1 mm 0 mps 753 mmHg 81%
    11:00 +28°C° 0.3 mm 0 mps 752 mmHg 76%
    12:00 +31°C° 0.3 mm 1 mps 751 mmHg 72%
    13:00 +33°C° 0.3 mm 1 mps 750 mmHg 67%
    14:00 +30°C° 0.5 mm 0 mps 750 mmHg 71%
    15:00 +29°C° 0.5 mm 0 mps 749 mmHg 75%
    16:00 +29°C° 0.5 mm 0 mps 749 mmHg 79%
    17:00 +27°C° 1.1 mm 0 mps 750 mmHg 85%
    18:00 +26°C° 1.1 mm 0 mps 751 mmHg 90%
    19:00 +24°C° 1.1 mm 0 mps 751 mmHg 95%
    20:00 +24°C° 1.9 mm 0 mps 752 mmHg 96%
    21:00 +25°C° 1.9 mm 1 mps 752 mmHg 97%
    22:00 +25°C° 1.9 mm 1 mps 753 mmHg 97%
    23:00 +25°C° 3 mm 1 mps 753 mmHg 98%

    18 November, Monday

    Time Temperature Precipitation Wind Pressure Humidity
    00:00 +23°C° 3 mm 0 mps 753 mmHg 98%
    01:00 +22°C° 3 mm 0 mps 753 mmHg 98%
    02:00 +22°C° 1.2 mm 0 mps 752 mmHg 98%
    03:00 +22°C° 1.2 mm 0 mps 752 mmHg 99%
    04:00 +22°C° 1.2 mm 0 mps 752 mmHg 99%
    05:00 +22°C° 0.5 mm 0 mps 753 mmHg 98%
    06:00 +23°C° 0.5 mm 0 mps 753 mmHg 98%
    07:00 +23°C° 0.5 mm 0 mps 754 mmHg 98%
    08:00 +24°C° 0.2 mm 0 mps 754 mmHg 93%
    09:00 +25°C° 0.2 mm 0 mps 754 mmHg 87%
    10:00 +29°C° 0.2 mm 1 mps 754 mmHg 82%
    11:00 +30°C° 0.4 mm 1 mps 753 mmHg 76%
    12:00 +29°C° 0.4 mm 0 mps 752 mmHg 71%
    13:00 +31°C° 0.4 mm 0 mps 751 mmHg 65%
    14:00 +30°C° 0.6 mm 0 mps 751 mmHg 69%
    15:00 +31°C° 0.6 mm 1 mps 750 mmHg 74%
    16:00 +31°C° 0.6 mm 1 mps 750 mmHg 78%
    17:00 +29°C° 1.2 mm 1 mps 751 mmHg 84%
    18:00 +27°C° 1.2 mm 1 mps 751 mmHg 89%
    19:00 +26°C° 1.2 mm 1 mps 752 mmHg 95%
    20:00 +25°C° 1.9 mm 1 mps 753 mmHg 96%
    21:00 +23°C° 1.9 mm 0 mps 753 mmHg 97%
    22:00 +23°C° 1.9 mm 0 mps 754 mmHg 97%
    23:00 +23°C° 1.8 mm 0 mps 753 mmHg 97%
    Show more